Regional Weather Roundup
Issued by NWS

Home | Current Version | Previous Version | Text Only | Print | Product List | Glossary On
Versions: 1 2 3 4 5 6 7 8 9 10 11 12 13 14 15 16 17 18 19 20 21 22 23 24 25 26 27 28 29 30 31 32 33 34 35 36 37 38 39 40 41 42 43 44 45 46 47 48 49 50
000
ASUS45 KCYS 250410
RWRWY

WYOMING REGIONAL WEATHER ROUNDUP
NATIONAL WEATHER SERVICE CHEYENNE WY
1000 PM MDT SUN JUL 24 2016

NOTE:  "FAIR" INDICATES FEW OR NO CLOUDS BELOW 12,000 FEET
WITH NO SIGNIFICANT WEATHER AND/OR OBSTRUCTIONS TO VISIBILITY.

WYZ001-250500-
YELLOWSTONE NATIONAL PARK

CITY           SKY/WX    TMP DP  RH WIND       PRES   REMARKS
LK YELLOWSTONE   N/A     52  32  46 CALM      30.37R
W YELLOWSTONE  NOT AVBL

$$
WYZ002>013-054>058-071-098>099-250500-
NORTHERN WYOMING

CITY           SKY/WX    TMP DP  RH WIND       PRES   REMARKS
JACKSON        FAIR      64  34  32 E5        30.24R
CODY           FAIR      73  36  25 W5        30.13R
GREYBULL       FAIR      81  30  15 N5        30.02R
WORLAND        FAIR      74  27  17 E9        30.03R
SHERIDAN       FAIR      68  48  48 CALM      30.07R
BUFFALO        FAIR      70  40  33 W7        30.15R
GILLETTE       FAIR      73  42  32 S10       30.10R
HULETT         FAIR      70  46  43 CALM      30.12S
NEWCASTLE      FAIR      77  41  27 SE17      30.15R

$$
WYZ014>020-022>026-101>103-250500-
CENTRAL WYOMING

CITY           SKY/WX    TMP DP  RH WIND       PRES   REMARKS
BIG PINEY      FAIR      58  28  32 N13       30.28R
PINEDALE       FAIR      57  36  44 NW7       30.29R
DUBOIS         FAIR      66  21  18 NW7       30.28R
LANDER         FAIR      73  33  23 SW8       30.16R
RIVERTON       FAIR      75  24  15 NE6       30.14R
CASPER         FAIR      73  31  21 E8        30.15R
DOUGLAS          N/A    N/A N/A N/A MISG      30.17R

$$
WYZ021-027>030-104>119-250500-
SOUTHERN WYOMING

CITY           SKY/WX    TMP DP  RH WIND       PRES   REMARKS
EVANSTON       FAIR      72  17  12 N6        30.29R
KEMMERER         N/A    N/A N/A N/A N8        30.31R
FORT BRIDGER   FAIR      71  16  12 W5        30.31R
ROCK SPRINGS   FAIR      72  11   9 W9        30.25R
DIXON          FAIR      67  33  27 E8        30.26R
RAWLINS        FAIR      65  16  15 N10       30.25R
SARATOGA       FAIR      63  23  22 W5        30.28R
LARAMIE        FAIR      60  54  80 SE21G31   30.31R
CHEYENNE       FAIR      60  54  80 S12       30.31R
TORRINGTON     FAIR      67  54  63 SE12      30.17R
PINE BLUFFS    FAIR      61  54  77 SW10      30.26R

$$



USA.gov is the U.S. government's official web portal to all federal, state and local government web resources and services.